CZ-6A DEB, 54497

Orbit data source: Space-Track

CZ-6A DEB, 54497 is space debris in SSO originally from a launch on Fri, 11 Nov 2022 UTC launched from the Taiyaun Space Center, China (TSC). Debris objects in space refer to the collection of defunct objects orbiting the Earth. Examples of debris include non-operational satellites, rocket bodies, and fragments generated from explosions, collisions, or faulty payload assembly.

Loading next visibility...
Identifier
54497, 2022-151HZ
Orbit
SSO
Country
Flag of CNCN / PRC
Related business
Manufacturer
SAST
Mission
Spacecraft
Bus & Motor
Unknown
Mass
Unknown
Launch date (UTC)
2022-11-11 (4 years ago)
Launch vehicle
Unknown
Launch site
Taiyaun Space Center, China (TSC)
Object type
Payload
Rocket body
Debris
Shape & HBR
Unknown shape, 0.1 m
Radar Cross Section
Medium (>0.1 m² and <1 m²)

Expand to show TLE details & history
Last TLE update: 6 hours ago

TLE from 6 hours ago
0 CZ-6A DEB
1 54497U 22151HZ  26236.43082132  .00000634  00000-0  36320-3 0  9992
2 54497  98.8421 236.8627 0049577 133.2999 227.2323 14.12368959194154
Epoch: 2026-08-24T10:20Z
TLE epoch observation values (Epoch: 2026-08-24T10:20:22.962Z)
Latitude
-0.00006°
Longitude
109.0544°
Altitude
878.614 km
Speed
7.4 km/s
True Right ascension
15h 47m 27s
True Declination
0° 00' 00"
Sunlit
Object was in daylight at epoch
Visualization orbit readout
Latitude
Unknown
Longitude
Unknown
Altitude
Unknown
Speed
Unknown
Apparent Right ascension
Unknown
Apparent Declination
Unknown
Sunlit
N/A
Visualization observer readout
Local Sidereal Time
07:25:58
Azimuth
Unknown
Elevation
Unknown
Doppler factor
Unknown
Orbital elements
Apogee altitude
884.279 km
Perigee altitude
812.624 km
Semi-major axis
7,226.589 km
Eccentricity
0.00496
Inclination
98.8421°
RAAN
236.8627°
Arg. of periapsis
133.2999°
True anomaly
226.81699°
Mean anomaly
227.2323°
Eccentric anomaly
227.02447°
Mean motion
3.533 °/min
Orbital period
101.9 mins
BSTAR
0.0003632
Loading maneuver chart data...
Computing Atmospheric mass density...
Loading historical data...
Loading historical data...
Loading historical data...
Loading historical data...
Loading historical data...
Loading historical data...
Loading historical data...

Documentation

Showing up to 5 results
|